sat.trackr.live / text

‹ back to catalog

INTELSAT 21 (IS-21)

NORAD 38749 · 2012-045A

PAYLOAD ACTIVE UNKNOWN

§ Identity

Operator
Country
ITSO
Launch date
2012-08-19
Launch site
SEAL
Launch vehicle
Mass (kg)
RCS (m²)
52.40

Purposes: comms

External: N2YO · Heavens-Above · Gunter

§ Orbital elements

Epoch: 2026-09-10T01:45:12.318336Z

Period
1,436.12 min
Inclination
0.0181°
Eccentricity
0.0002493
Mean motion
1.00270017 rev/d
Perigee alt
35,776.6 km
Apogee alt
35,797.6 km
Semi-major
42,165.2 km
B*
0.0000e+0
RAAN
235.6779°
Arg perigee
318.9690°
Mean anomaly
122.7600°
Rev number
5,137

§ Raw data

INTELSAT 21 (IS-21)1 38749U 12045A   26253.07305924 -.00000305  00000+0  00000+0 0  99982 38749   0.0181 235.6779 0002493 318.9690 122.7600  1.00270017 51378

JSON: /api/v1/satellites/38749 · /tle

For live sub-satellite position, see the globe view (requires WebGL).

§ Visibility from observer

Set your observer location to see the next 7 days of passes ≥ 10°. The values pass through the URL so the page stays shareable.

No JS? Fill the form by hand. The geolocation button needs JavaScript.